GW3762 Weather Reports


Display with metric or nautical units.
time (UTC)temp
F
wind
direction
speed
MPH
gust
MPH
rain 1hr
in
rain 24hr
in
rain mn
in
humidity
%
barometer
mb
20260510055456 50 60 0.0 0.0 0.00 0.26 0.00 96 1011.6
20260510054956 51 60 0.0 0.0 0.00 0.26 0.00 96 1011.6
20260510054457 51 61 0.0 0.0 0.00 0.26 0.00 96 1011.7
20260510052957 51 61 0.0 0.0 0.00 0.26 0.00 96 1011.8
20260510052456 51 61 0.0 0.0 0.00 0.26 0.00 96 1011.9
20260510051456 51 61 0.0 0.0 0.00 0.26 0.00 96 1011.8
20260510050956 51 61 0.0 0.0 0.00 0.26 0.00 95 1011.9
20260510050457 51 61 0.0 0.0 0.00 0.26 0.00 95 1011.9
20260510045959 51 61 0.0 0.0 0.00 0.26 0.00 95 1012.0
20260510045456 51 61 0.0 0.0 0.00 0.26 0.00 95 1012.0
20260510044957 51 61 0.0 0.0 0.00 0.26 0.00 95 1012.0
20260510043957 51 61 0.0 0.0 0.00 0.26 0.00 95 1012.0
20260510043457 51 61 0.0 0.0 0.00 0.26 0.00 95 1011.8
20260510042957 51 61 0.0 0.0 0.00 0.26 0.00 95 1011.7
20260510042457 51 61 0.0 0.0 0.00 0.26 0.00 95 1011.7
20260510041958 51 61 0.0 0.0 0.00 0.26 0.00 95 1011.7
20260510041457 51 61 0.0 0.0 0.00 0.26 0.00 96 1011.6
20260510040957 51 61 0.0 0.0 0.00 0.26 0.00 96 1011.6
20260510040458 51 61 0.0 0.0 0.00 0.26 0.00 96 1011.6
20260510035459 51 61 0.0 0.0 0.01 0.26 0.26 95 1011.5
20260510034459 51 61 0.0 0.0 0.01 0.26 0.26 95 1011.4
20260510033959 51 61 0.0 0.0 0.01 0.26 0.26 95 1011.6
20260510033459 51 61 0.0 0.0 0.01 0.26 0.26 95 1011.5
20260510033001 51 61 0.0 0.0 0.01 0.26 0.26 95 1011.5
20260510032459 51 61 0.0 0.0 0.01 0.26 0.26 95 1011.5
20260510030959 51 61 0.0 0.0 0.01 0.26 0.26 95 1011.8
20260510025459 51 61 0.0 0.0 0.00 0.25 0.25 95 1011.7
20260510024959 51 61 0.0 0.0 0.00 0.25 0.25 95 1011.8
20260510024500 51 61 0.0 0.0 0.00 0.25 0.25 95 1011.7
20260510023959 51 61 0.0 0.0 0.00 0.25 0.25 95 1011.7
20260510023459 51 61 0.0 1.0 0.00 0.25 0.25 95 1011.8
20260510022959 51 61 0.0 2.0 0.00 0.25 0.25 95 1011.8
20260510022459 51 61 0.0 2.0 0.00 0.25 0.25 95 1011.8
20260510021500 51 211 0.0 1.0 0.01 0.25 0.25 95 1011.6
20260510021000 51 211 0.0 1.0 0.01 0.25 0.25 95 1011.6
20260510020000 51 211 0.0 1.0 0.01 0.25 0.25 95 1011.7
20260510015459 51 211 0.0 1.0 0.01 0.25 0.25 95 1011.7
20260510014958 51 211 0.0 1.0 0.01 0.25 0.25 95 1011.7
20260510014457 51 212 0.0 2.0 0.01 0.25 0.25 95 1011.7
20260510013958 51 212 0.0 2.0 0.01 0.25 0.25 95 1011.7
20260510013458 51 198 0.0 0.0 0.02 0.25 0.25 95 1011.7
20260510012959 52 198 0.0 0.0 0.02 0.25 0.25 95 1011.6
20260510012458 52 198 0.0 0.0 0.02 0.25 0.25 95 1011.5
20260510011958 52 198 0.0 0.0 0.01 0.24 0.24 95 1011.5
20260510011458 52 198 0.0 2.0 0.01 0.24 0.24 95 1011.3
20260510010959 52 67 1.0 2.0 0.02 0.24 0.24 95 1011.4
20260510010459 52 71 0.0 1.0 0.02 0.24 0.24 95 1011.4
20260510005500 52 71 0.0 1.0 0.02 0.24 0.24 95 1011.4
20260510004459 52 70 0.0 2.0 0.03 0.24 0.24 95 1011.3
20260510003459 52 70 0.0 1.0 0.02 0.23 0.23 95 1011.3
20260510002459 52 70 0.0 0.0 0.03 0.23 0.23 95 1011.3
20260510002000 52 70 0.0 1.0 0.03 0.23 0.23 95 1011.1
20260510001459 52 70 0.0 1.0 0.04 0.23 0.23 95 1011.0
20260510001000 52 70 0.0 1.0 0.03 0.22 0.22 95 1010.9
20260510000500 52 70 0.0 1.0 0.04 0.22 0.22 95 1011.0
20260509235958 52 70 0.0 4.0 0.04 0.22 0.22 95 1011.0
20260509235458 52 70 0.0 4.0 0.05 0.22 0.22 95 1011.0
20260509234959 52 348 0.0 2.0 0.06 0.22 0.22 95 1011.0
20260509234458 52 5 0.0 1.0 0.05 0.21 0.21 95 1011.0
20260509233958 52 5 0.0 2.0 0.06 0.21 0.21 95 1011.0
20260509233458 52 360 1.0 6.0 0.06 0.21 0.21 95 1010.9
20260509232958 52 20 3.0 7.0 0.06 0.20 0.20 95 1010.8
20260509232458 52 349 0.0 7.0 0.06 0.20 0.20 94 1010.8
20260509231458 53 38 1.0 3.0 0.07 0.19 0.19 95 1011.0
20260509230457 53 240 0.0 1.0 0.07 0.18 0.18 95 1011.6
20260509225959 53 240 0.0 1.0 0.07 0.18 0.18 95 1011.7
20260509225458 53 240 0.0 3.0 0.07 0.17 0.17 94 1011.7
20260509224458 53 241 0.0 0.0 0.07 0.16 0.16 95 1011.9
20260509223958 53 241 0.0 0.0 0.06 0.15 0.15 95 1012.0
20260509223457 53 241 0.0 0.0 0.06 0.15 0.15 95 1012.1
20260509222959 53 241 0.0 0.0 0.05 0.14 0.14 95 1012.1
20260509221957 54 241 0.0 0.0 0.04 0.13 0.13 94 1011.8
20260509221458 53 241 0.0 0.0 0.03 0.12 0.12 94 1011.8
20260509220958 53 241 0.0 0.0 0.03 0.12 0.12 94 1012.0
20260509215958 53 241 0.0 3.0 0.02 0.11 0.11 94 1012.1
20260509215458 53 241 2.0 3.0 0.01 0.10 0.10 94 1012.1
20260509214958 54 241 2.0 3.0 0.01 0.10 0.10 94 1012.1
20260509214458 54 241 2.0 4.0 0.00 0.09 0.09 94 1012.1
20260509213958 54 240 3.0 4.0 0.00 0.09 0.09 94 1012.1
20260509213458 54 239 2.0 4.0 0.00 0.09 0.09 94 1012.1
20260509212958 54 241 3.0 4.0 0.01 0.09 0.09 94 1012.1
20260509212458 54 245 2.0 4.0 0.01 0.09 0.09 94 1012.1
20260509211458 54 250 2.0 4.0 0.01 0.09 0.09 94 1012.0
20260509210958 54 249 2.0 4.0 0.01 0.09 0.09 94 1012.0
20260509210458 54 244 2.0 7.0 0.01 0.09 0.09 94 1011.9
20260509210000 54 244 4.0 7.0 0.01 0.09 0.09 94 1012.0
20260509205458 54 252 5.0 5.0 0.01 0.09 0.09 94 1012.0
20260509203958 54 84 0.0 0.0 0.02 0.09 0.09 94 1011.4
20260509203458 54 84 0.0 3.0 0.02 0.09 0.09 94 1011.3
20260509202958 54 84 0.0 4.0 0.01 0.08 0.08 94 1011.1
20260509202457 54 254 1.0 4.0 0.01 0.08 0.08 94 1011.9
20260509201958 54 255 3.0 4.0 0.01 0.08 0.08 94 1011.9
20260509201458 54 236 2.0 6.0 0.01 0.08 0.08 93 1011.9
20260509200959 54 227 2.0 6.0 0.02 0.08 0.08 93 1012.2
20260509200457 54 253 2.0 5.0 0.02 0.08 0.08 93 1012.1
20260509200001 54 234 3.0 5.0 0.02 0.08 0.08 93 1012.1
20260509195459 54 242 2.0 5.0 0.03 0.08 0.08 93 1012.1
20260509194459 54 251 3.0 9.0 0.03 0.07 0.07 93 1012.1
20260509193959 54 244 5.0 9.0 0.03 0.07 0.07 93 1012.1
20260509193459 54 234 4.0 7.0 0.04 0.07 0.07 93 1012.1
20260509192959 55 229 3.0 5.0 0.05 0.07 0.07 93 1012.1
20260509192459 55 240 3.0 5.0 0.06 0.07 0.07 93 1011.9
20260509191959 55 231 5.0 5.0 0.07 0.07 0.07 93 1011.9
20260509191459 55 227 3.0 4.0 0.07 0.07 0.07 93 1011.6
20260509190459 55 195 2.0 2.0 0.06 0.06 0.06 92 1011.6
20260509185958 55 156 0.0 0.0 0.06 0.06 0.06 92 1011.6
20260509184958 55 225 0.0 3.0 0.05 0.05 0.05 91 1011.6
20260509184458 55 225 0.0 3.0 0.04 0.04 0.04 91 1011.7
20260509183958 55 225 2.0 3.0 0.04 0.04 0.04 90 1011.8
20260509182958 56 211 1.0 2.0 0.02 0.02 0.02 88 1012.0
20260509182457 56 84 0.0 0.0 0.01 0.01 0.01 86 1011.9
20260509181458 57 84 0.0 0.0 0.00 0.00 0.00 84 1011.7
20260509180958 57 84 0.0 0.0 0.00 0.00 0.00 82 1011.8
20260509175959 58 84 0.0 2.0 0.00 0.00 0.00 81 1011.5
20260509175458 58 84 0.0 1.0 0.00 0.00 0.00 80 1011.5
20260509174957 58 84 0.0 4.0 0.00 0.00 0.00 78 1011.5
20260509174458 59 84 0.0 4.0 0.00 0.00 0.00 81 1011.5
20260509173958 59 72 2.0 3.0 0.00 0.00 0.00 79 1011.6
20260509173459 59 200 0.0 2.0 0.00 0.00 0.00 77 1011.7
20260509172958 59 198 0.0 2.0 0.00 0.00 0.00 78 1011.6
20260509172458 59 196 0.0 4.0 0.00 0.00 0.00 80 1011.8
20260509171458 59 36 1.0 4.0 0.00 0.00 0.00 78 1011.9
20260509170458 59 238 0.0 2.0 0.00 0.00 0.00 79 1012.0
20260509170001 59 238 0.0 3.0 0.00 0.00 0.00 77 1012.2
20260509165458 59 238 2.0 3.0 0.00 0.00 0.00 80 1012.4
20260509164958 58 229 0.0 4.0 0.00 0.00 0.00 79 1012.5
20260509163958 57 222 1.0 3.0 0.00 0.00 0.00 79 1012.6
20260509163457 57 211 0.0 3.0 0.00 0.00 0.00 79 1012.7
20260509162458 57 117 0.0 2.0 0.00 0.00 0.00 81 1012.8
20260509161958 57 117 0.0 2.0 0.00 0.00 0.00 82 1012.8
20260509160000 57 255 1.0 4.0 0.00 0.00 0.00 80 1013.0
20260509154958 57 238 0.0 6.0 0.00 0.00 0.00 81 1012.8
20260509154458 57 242 2.0 5.0 0.00 0.00 0.00 81 1012.8
20260509153958 57 255 3.0 5.0 0.00 0.00 0.00 81 1012.9
20260509153458 57 236 1.0 5.0 0.00 0.00 0.00 80 1013.0
20260509152958 57 244 0.0 3.0 0.00 0.00 0.00 81 1013.1
20260509152457 57 241 0.0 3.0 0.00 0.00 0.00 80 1013.1
20260509151957 57 242 3.0 3.0 0.00 0.00 0.00 82 1013.2
20260509150958 56 262 0.0 2.0 0.00 0.00 0.00 83 1013.1
20260509150459 56 263 0.0 655.0 8.34 0.99 0.00 85
20260509145957 56 264 0.0 3.0 0.00 0.00 0.00 84 1013.2
20260509144958 54 264 2.0 2.0 0.00 0.00 0.00 85 1013.1
20260509144458 54 123 2.0 2.0 0.00 0.00 0.00 86 1012.9
20260509143958 54 123 1.0 6.0 0.00 0.00 0.00 86 1013.0
20260509143458 54 74 0.0 6.0 0.00 0.00 0.00 86 1013.0
20260509142958 54 19 3.0 6.0 0.00 0.00 0.00 87 1013.0
20260509142458 53 105 3.0 6.0 0.00 0.00 0.00 87 1013.2
20260509141957 53 233 1.0 4.0 0.00 0.00 0.00 87 1013.4
20260509141457 53 47 1.0 4.0 0.00 0.00 0.00 89 1013.3
20260509140457 52 22 2.0 3.0 0.00 0.00 0.00 88 1013.1
20260509135959 52 63 1.0 6.0 0.00 0.00 0.00 90 1012.8
20260509135457 52 52 2.0 9.0 0.00 0.00 0.00 90 1012.7
20260509134956 51 72 6.0 9.0 0.00 0.00 0.00 90 1012.8
20260509134456 51 78 2.0 9.0 0.00 0.00 0.00 90 1012.8
20260509133956 51 50 5.0 10.0 0.00 0.00 0.00 90 1013.0
20260509132957 50 83 1.0 6.0 0.00 0.00 0.00 91 1012.9
20260509132457 50 85 2.0 10.0 0.00 0.00 0.00 91 1013.2
20260509130957 48 360 4.0 8.0 0.00 0.00 0.00 91 1013.6
20260509130456 48 78 4.0 8.0 0.00 0.00 0.00 91 1013.8
20260509130000 48 61 1.0 6.0 0.00 0.00 0.00 91 1013.8
20260509124958 48 74 7.0 8.0 0.00 0.00 0.00 91 1013.8
20260509124457 47 50 3.0 6.0 0.00 0.00 0.00 91 1013.6
20260509123958 47 60 4.0 8.0 0.00 0.00 0.00 90 1013.8
20260509123457 47 63 6.0 8.0 0.00 0.00 0.00 91 1013.8
20260509122957 47 51 5.0 9.0 0.00 0.00 0.00 90 1013.7
20260509122457 47 59 5.0 9.0 0.00 0.00 0.00 90 1013.9
20260509121957 47 44 4.0 9.0 0.00 0.00 0.00 91 1013.9
20260509121458 47 48 6.0 10.0 0.00 0.00 0.00 91 1013.8
20260509120957 47 76 7.0 10.0 0.00 0.00 0.00 91 1013.7
20260509120457 47 74 7.0 9.0 0.00 0.00 0.00 91 1013.9
20260509115959 47 77 5.0 10.0 0.00 0.00 0.00 91 1013.9
20260509115457 47 77 2.0 9.0 0.00 0.00 0.00 91 1013.9
20260509114958 47 72 5.0 9.0 0.00 0.00 0.00 91 1013.8
20260509114458 46 60 4.0 8.0 0.00 0.00 0.00 91 1014.0
20260509113958 46 57 4.0 6.0 0.00 0.00 0.00 91 1014.2
20260509113458 46 66 3.0 10.0 0.00 0.00 0.00 90 1014.0
20260509112958 46 86 3.0 10.0 0.00 0.00 0.00 90 1014.0
20260509111957 46 30 3.0 9.0 0.00 0.00 0.00 90 1013.9
20260509111458 46 92 4.0 9.0 0.00 0.00 0.00 90 1013.8
20260509110458 46 27 2.0 9.0 0.00 0.00 0.00 91 1013.9
20260509110000 46 65 5.0 9.0 0.00 0.00 0.00 91 1013.8
20260509105457 46 76 5.0 9.0 0.00 0.00 0.00 91 1013.6
20260509104458 46 74 8.0 10.0 0.00 0.00 0.00 92 1013.5
20260509103957 46 61 10.0 11.0 0.00 0.00 0.00 92 1013.5
20260509103457 46 63 6.0 11.0 0.00 0.00 0.00 92 1013.5
20260509102958 46 75 7.0 7.0 0.00 0.00 0.00 92 1013.6
20260509102458 46 67 4.0 7.0 0.00 0.00 0.00 92 1013.5
20260509101958 46 62 4.0 8.0 0.00 0.00 0.00 92 1013.5
20260509101457 46 68 4.0 8.0 0.00 0.00 0.00 92 1013.6
20260509100957 46 63 3.0 5.0 0.00 0.00 0.00 92 1013.7
20260509100459 46 57 3.0 8.0 0.00 0.00 0.00 92 1013.7
20260509095959 46 67 4.0 8.0 0.00 0.00 0.00 92 1013.5
20260509095457 46 70 5.0 8.0 0.00 0.00 0.00 92 1013.6
20260509094957 46 81 5.0 7.0 0.00 0.00 0.00 92 1013.6
20260509092456 46 72 5.0 6.0 0.00 0.00 0.00 92 1013.4
20260509091957 46 74 5.0 6.0 0.00 0.00 0.00 92 1013.6
20260509091457 46 75 3.0 6.0 0.00 0.00 0.00 92 1013.6
20260509090957 46 73 4.0 6.0 0.00 0.00 0.00 91 1013.7
20260509090457 46 70 2.0 5.0 0.00 0.00 0.00 91 1013.6
20260509085959 46 78 2.0 5.0 0.00 0.00 0.00 91 1013.7
20260509085457 46 74 2.0 4.0 0.00 0.00 0.00 91 1013.6
20260509084957 46 70 1.0 4.0 0.00 0.00 0.00 91 1013.7
20260509084458 46 78 4.0 4.0 0.00 0.00 0.00 91 1013.6
20260509083958 46 67 3.0 4.0 0.00 0.00 0.00 90 1013.6
20260509083457 46 76 3.0 4.0 0.00 0.00 0.00 90 1013.6
20260509082957 46 76 3.0 4.0 0.00 0.00 0.00 89 1013.7
20260509082458 46 69 2.0 3.0 0.00 0.00 0.00 89 1013.6
20260509081957 47 69 3.0 3.0 0.00 0.00 0.00 88 1013.7
20260509081457 47 69 3.0 3.0 0.00 0.00 0.00 87 1013.7
20260509080958 47 69 2.0 2.0 0.00 0.00 0.00 86 1013.7
20260509080457 48 67 0.0 0.0 0.00 0.00 0.00 84 1013.7
20260509075958 48 67 0.0 0.0 0.00 0.00 0.00 84 1013.7
20260509075457 48 67 0.0 1.0 0.00 0.00 0.00 84 1013.6
20260509074958 48 67 1.0 1.0 0.00 0.00 0.00 82 1013.5
20260509074458 48 67 1.0 3.0 0.00 0.00 0.00 81 1013.5
20260509073958 49 67 0.0 3.0 0.00 0.00 0.00 80 1013.4
20260509072958 49 67 1.0 3.0 0.00 0.00 0.00 79 1013.3
20260509072457 49 67 2.0 3.0 0.00 0.00 0.00 79 1013.2
20260509071958 49 67 2.0 3.0 0.00 0.00 0.00 79 1013.2
20260509071457 49 67 2.0 4.0 0.00 0.00 0.00 79 1013.2
20260509070958 49 69 3.0 4.0 0.00 0.00 0.00 79 1013.2
20260509070457 49 71 3.0 4.0 0.00 0.00 0.00 79 1013.2
20260509065958 49 69 2.0 4.0 0.00 0.00 0.00 79 1013.2
20260509064957 49 246 3.0 3.0 0.00 0.00 0.00 80 1013.3
20260509064457 49 246 1.0 3.0 0.00 0.00 0.00 80 1013.4
20260509063456 49 246 1.0 2.0 0.00 0.00 0.00 80 1013.5
20260509062456 49 243 1.0 3.0 0.00 0.00 0.00 80 1013.7
20260509061957 49 243 2.0 3.0 0.00 0.00 0.00 81 1013.7
20260509061457 49 243 0.0 0.0 0.00 0.00 0.00 81 1013.8
20260509060956 49 243 0.0 0.0 0.00 0.00 0.00 81 1014.0
20260509060457 49 243 0.0 0.0 0.00 0.00 0.00 81 1014.0